Abilene, TX

12:01 PM CDT on May 24, 2017 (GMT -0500)
Abilene Regional

Weather History for KABI - November, 2013

Change the Weather History Date:

Saturday, November 2, 2013

  Actual Average Record
Temperature  
Mean Temperature 53 °F 60 °F  
Max Temperature 70 °F 72 °F 84 °F (2001)
Min Temperature 36 °F 49 °F 25 °F (1991)
Degree Days  
Heating Degree Days 12 6  
Month to date heating degree days 16 12  
Since 1 July heating degree days 95 116  
Cooling Degree Days 0 2  
Month to date cooling degree days 0 4  
Year to date cooling degree days 2709 2393  
Growing Degree Days 4 (Base 50)    
Moisture  
Dew Point 31 °F    
Average Humidity 47    
Maximum Humidity 76    
Minimum Humidity 18    
Precipitation  
Precipitation 0.00 in 0.06 in 2.43 in (1975)
Month to date precipitation 0.00 0.13  
Year to date precipitation 20.91 22.31  
Sea Level Pressure  
Sea Level Pressure 30.24 in    
Wind  
Wind Speed 4 mph (WNW)    
Max Wind Speed 13 mph    
Max Gust Speed 16 mph    
Visibility 10 miles    
Events      
T = Trace of Precipitation, MM = Missing Value Source: NWS Daily Summary

Daily Weather History Graph

Daily Weather History Graph

Search for Another Location

Airport or City:

Trip Planner

Search our weather history database for the weather conditions in past years. The results will help you decide how hot, cold, wet, or windy it might be!

Date:

Astronomy

Nov. 02, 2013 Rise Set
Actual Time 7:56 AM CDT 6:47 PM CDT
Civil Twilight 7:31 AM CDT 7:12 PM CDT
Nautical Twilight 7:02 AM CDT 7:41 PM CDT
Astronomical Twilight 6:33 AM CDT 8:10 PM CDT
Moon 6:58 AM CDT (11/2) 6:18 PM CDT (11/2)
Length of Visible Light 11h 40m
Length of Day
10h 50m
Waning Crescent, 1% of the Moon is Illuminated
Nov 2
Waning Crescent
Nov 3
New
Nov 9
First Quarter
Nov 17
Full
Nov 25
Last Quarter

Hourly Weather History & Observations

Time (CDT) Temp. Windchill Dew Point Humidity Pressure Visibility Wind Dir Wind Speed Gust Speed Precip Events Conditions
12:52 AM 51.1 °F - 33.1 °F 50% 30.18 in 10.0 mi Calm Calm - N/A   Clear
1:52 AM 43.0 °F 40.3 °F 34.0 °F 71% 30.19 in 9.0 mi SW 4.6 mph - N/A   Clear
2:52 AM 44.1 °F 42.5 °F 35.1 °F 71% 30.21 in 10.0 mi WSW 3.5 mph - N/A   Clear
3:52 AM 44.1 °F - 34.0 °F 68% 30.22 in 10.0 mi Calm Calm - N/A   Clear
4:52 AM 43.0 °F - 34.0 °F 71% 30.23 in 10.0 mi Calm Calm - N/A   Clear
5:52 AM 43.0 °F 41.3 °F 33.1 °F 68% 30.25 in 9.0 mi West 3.5 mph - N/A   Clear
6:52 AM 42.1 °F - 32.0 °F 67% 30.27 in 10.0 mi Calm Calm - N/A   Clear
7:52 AM 37.0 °F 33.3 °F 30.9 °F 79% 30.30 in 10.0 mi SSW 4.6 mph - N/A   Clear
8:52 AM 42.1 °F - 35.1 °F 76% 30.31 in 10.0 mi Calm Calm - N/A   Clear
9:52 AM 52.0 °F - 35.1 °F 53% 30.34 in 10.0 mi North 3.5 mph - N/A   Clear
10:52 AM 57.9 °F - 30.9 °F 36% 30.35 in 10.0 mi North 4.6 mph - N/A   Clear
11:52 AM 62.1 °F - 30.0 °F 30% 30.34 in 10.0 mi North 3.5 mph - N/A   Clear
12:52 PM 64.9 °F - 28.9 °F 26% 30.32 in 10.0 mi NNW 3.5 mph - N/A   Clear
1:52 PM 66.9 °F - 26.1 °F 21% 30.29 in 10.0 mi NW 6.9 mph - N/A   Clear
2:52 PM 68.0 °F - 26.1 °F 21% 30.25 in 10.0 mi WNW 8.1 mph - N/A   Clear
3:52 PM 70.0 °F - 27.0 °F 20% 30.22 in 10.0 mi NNW 4.6 mph - N/A   Clear
4:52 PM 69.1 °F - 25.0 °F 19% 30.21 in 10.0 mi Calm Calm - N/A   Clear
5:52 PM 68.0 °F - 27.0 °F 21% 30.19 in 10.0 mi Calm Calm - N/A   Clear
6:52 PM 64.9 °F - 26.1 °F 23% 30.18 in 10.0 mi Calm Calm - N/A   Clear
7:52 PM 57.9 °F - 30.9 °F 36% 30.21 in 10.0 mi ESE 6.9 mph - N/A   Clear
8:52 PM 52.0 °F - 30.9 °F 45% 30.22 in 10.0 mi ESE 5.8 mph - N/A   Clear
9:52 PM 50.0 °F - 32.0 °F 50% 30.20 in 10.0 mi SSE 6.9 mph - N/A   Clear
10:52 PM 48.0 °F - 30.9 °F 52% 30.21 in 10.0 mi SSE 6.9 mph - N/A   Clear
11:52 PM 48.9 °F - 30.9 °F 50% 30.18 in 10.0 mi SE 8.1 mph - N/A   Clear